Total_Precipitation_Accumulation
1.09 1.10 1.12 1.09 1.11 1.13 1.06 1.03 1.07 1.17 1.23 1.26 1.24 1.20 1.13 1.08 1.09 1.10 1.01 1.08 1.17 1.21 1.20 1.28 1.35 1.34 1.36 1.38 1.48 1.55 1.71 1.87 1.70 1.38 1.32 1.37 1.43 1.40 1.25 1.06 0.88 0.84 0.75
1.18 1.26 1.32 1.35 1.36 1.30 1.17 1.11 1.16 1.24 1.32 1.35 1.35 1.31 1.19 1.18 1.28 1.30 1.23 1.28 1.33 1.31 1.29 1.31 1.25 1.29 1.40 1.39 1.46 1.47 1.57 1.78 1.71 1.58 1.55 1.56 1.60 1.54 1.47 1.26 1.00 0.88 0.83
1.43 1.62 1.78 1.80 1.63 1.47 1.39 1.31 1.34 1.36 1.41 1.45 1.46 1.50 1.47 1.45 1.43 1.45 1.52 1.50 1.38 1.27 1.29 1.28 1.24 1.29 1.30 1.38 1.45 1.39 1.38 1.48 1.62 1.65 1.67 1.74 1.77 1.66 1.53 1.37 1.22 1.14 0.91
1.23 1.51 1.70 1.79 1.66 1.59 1.54 1.40 1.35 1.37 1.43 1.47 1.51 1.66 1.79 1.80 1.77 1.67 1.58 1.49 1.39 1.31 1.25 1.19 1.18 1.21 1.22 1.27 1.33 1.35 1.37 1.47 1.58 1.63 1.72 1.90 1.91 1.92 1.84 1.60 1.48 1.41 1.14
1.03 1.20 1.41 1.62 1.48 1.29 1.26 1.23 1.21 1.26 1.37 1.60 1.74 1.82 2.00 2.11 1.98 1.92 1.78 1.67 1.63 1.49 1.37 1.25 1.15 1.12 1.15 1.18 1.13 1.18 1.29 1.39 1.40 1.45 1.53 1.74 1.84 1.96 1.91 1.70 1.55 1.54 1.38
1.02 1.14 1.29 1.37 1.26 1.11 1.00 1.01 1.06 1.12 1.25 1.42 1.57 1.65 1.67 1.57 1.70 1.67 1.58 1.58 1.61 1.52 1.46 1.39 1.24 1.12 1.09 1.03 0.94 0.96 1.03 1.08 1.16 1.30 1.33 1.50 1.68 1.79 1.92 1.98 1.82 1.67 1.60
1.10 1.13 1.21 1.29 1.27 1.17 1.00 0.98 1.01 1.09 1.22 1.30 1.35 1.40 1.36 1.40 1.39 1.24 1.20 1.21 1.31 1.37 1.42 1.42 1.21 1.07 1.10 0.99 0.95 0.89 0.84 0.88 0.95 1.13 1.23 1.27 1.49 1.68 1.89 2.05 2.05 1.98 1.84
1.08 1.16 1.34 1.45 1.41 1.33 1.25 1.20 1.22 1.24 1.25 1.27 1.29 1.31 1.38 1.35 1.25 1.07 1.06 1.01 1.10 1.19 1.26 1.30 1.27 1.17 1.16 1.18 1.10 0.98 0.86 0.85 0.90 0.93 0.98 1.13 1.40 1.76 1.95 1.99 2.12 2.14 2.06
1.22 1.32 1.42 1.57 1.59 1.54 1.57 1.59 1.57 1.51 1.40 1.37 1.39 1.43 1.41 1.37 1.27 1.06 1.03 0.97 1.05 1.13 1.18 1.20 1.21 1.15 1.18 1.10 1.04 1.01 0.99 0.98 0.92 0.92 0.93 1.01 1.17 1.40 1.75 1.87 1.91 1.86 1.77
1.36 1.49 1.54 1.71 1.81 1.76 1.80 1.86 1.88 1.90 1.80 1.75 1.64 1.55 1.49 1.41 1.32 1.06 1.01 0.98 1.04 1.11 1.19 1.18 1.10 1.01 0.96 0.90 0.89 0.98 0.94 0.94 1.01 0.98 0.93 0.88 0.87 1.01 1.30 1.50 1.57 1.58 1.45
1.38 1.52 1.63 1.82 1.97 2.07 2.21 2.28 2.25 2.22 2.15 2.02 1.81 1.69 1.68 1.66 1.52 1.13 0.99 0.98 1.04 1.16 1.20 1.19 1.10 0.99 0.84 0.80 0.81 0.87 0.90 0.90 0.99 1.02 0.98 0.96 0.97 0.99 1.07 1.22 1.41 1.48 1.40
1.33 1.50 1.74 1.93 1.97 2.03 2.30 2.38 2.35 2.28 2.18 2.04 1.90 1.71 1.62 1.59 1.44 1.18 0.99 1.00 1.10 1.20 1.22 1.19 1.18 1.02 0.84 0.79 0.75 0.75 0.78 0.75 0.79 0.90 0.89 0.85 0.86 0.87 0.91 1.05 1.24 1.36 1.42
1.40 1.55 1.79 1.97 2.12 2.24 2.33 2.30 2.27 2.26 2.18 2.04 1.94 1.79 1.74 1.80 1.71 1.34 1.13 1.10 1.13 1.12 1.13 1.16 1.11 0.99 0.83 0.72 0.73 0.73 0.67 0.65 0.73 0.81 0.82 0.74 0.71 0.75 0.86 1.00 1.15 1.28 1.32
1.31 1.40 1.55 1.68 1.76 1.89 2.06 2.04 1.95 1.96 2.00 1.98 1.91 1.83 1.78 1.79 1.73 1.48 1.27 1.24 1.23 1.20 1.14 1.11 1.01 0.96 0.84 0.77 0.78 0.72 0.65 0.72 0.79 0.81 0.84 0.85 0.82 0.84 0.88 0.94 1.04 1.14 1.20
1.18 1.21 1.30 1.40 1.50 1.62 1.70 1.77 1.74 1.71 1.63 1.65 1.66 1.67 1.60 1.57 1.60 1.47 1.35 1.40 1.45 1.45 1.39 1.33 1.22 1.12 0.99 0.90 0.89 0.91 0.91 0.97 0.94 0.92 0.97 1.01 0.99 0.93 0.91 0.95 1.08 1.12 1.07
1.24 1.20 1.19 1.23 1.30 1.37 1.46 1.47 1.41 1.30 1.20 1.14 1.11 1.13 1.13 1.16 1.25 1.19 1.13 1.21 1.29 1.35 1.30 1.25 1.21 1.14 1.05 1.05 1.08 1.09 1.08 1.08 1.05 1.06 1.07 1.11 1.11 1.03 0.95 0.95 1.05 1.11 1.05
1.33 1.26 1.23 1.17 1.18 1.26 1.33 1.39 1.37 1.20 1.03 0.90 0.82 0.78 0.79 0.85 0.94 0.96 0.98 1.07 1.18 1.27 1.25 1.25 1.21 1.19 1.12 1.10 1.12 1.12 1.09 1.09 1.13 1.15 1.15 1.16 1.21 1.21 1.17 1.10 1.08 1.13 1.11
1.35 1.29 1.23 1.17 1.13 1.16 1.20 1.22 1.28 1.34 1.24 1.05 0.86 0.71 0.65 0.65 0.70 0.80 0.89 1.01 1.14 1.18 1.18 1.21 1.19 1.17 1.14 1.11 1.08 1.10 1.11 1.14 1.14 1.13 1.16 1.19 1.25 1.26 1.27 1.19 1.12 1.09 1.11
1.15 1.12 1.07 1.09 1.11 1.10 1.13 1.14 1.13 1.20 1.20 1.15 1.01 0.84 0.72 0.65 0.65 0.74 0.79 0.86 1.05 1.11 1.11 1.09 1.05 1.00 0.98 0.99 0.99 0.98 0.98 0.99 1.01 1.08 1.08 1.09 1.15 1.14 1.10 1.07 1.08 1.08 1.09
1.12 1.07 1.00 1.01 1.06 1.08 1.09 1.10 1.07 1.14 1.14 1.15 1.05 0.88 0.74 0.64 0.64 0.69 0.73 0.87 1.04 1.06 1.02 0.97 0.95 0.90 0.90 0.91 0.93 0.91 0.91 0.93 0.98 1.07 1.08 1.06 1.08 1.06 1.01 1.01 1.06 1.09 1.07
1.12 1.02 0.88 0.85 0.90 0.96 1.01 1.01 0.99 1.01 1.02 1.04 0.94 0.75 0.63 0.59 0.65 0.72 0.81 0.93 1.03 0.98 0.94 0.90 0.88 0.84 0.82 0.82 0.83 0.85 0.89 0.95 0.98 1.04 1.08 1.10 1.12 1.09 1.03 1.03 1.07 1.12 1.13
1.15 1.06 0.92 0.79 0.77 0.83 0.89 0.92 0.92 0.92 0.91 0.92 0.83 0.63 0.53 0.51 0.58 0.66 0.75 0.84 0.89 0.89 0.87 0.86 0.82 0.76 0.75 0.77 0.80 0.87 0.91 0.93 0.98 1.05 1.07 1.10 1.15 1.11 1.09 1.09 1.08 1.12 1.18
1.06 0.99 0.89 0.74 0.70 0.75 0.80 0.88 0.87 0.81 0.82 0.82 0.73 0.61 0.55 0.57 0.59 0.66 0.73 0.77 0.79 0.83 0.82 0.78 0.72 0.69 0.69 0.71 0.74 0.81 0.88 0.93 0.94 0.98 1.02 1.05 1.10 1.10 1.13 1.11 1.08 1.12 1.15
0.91 0.90 0.86 0.69 0.65 0.77 0.84 0.88 0.84 0.76 0.77 0.75 0.65 0.61 0.59 0.61 0.63 0.65 0.67 0.71 0.73 0.73 0.73 0.71 0.64 0.60 0.60 0.64 0.69 0.71 0.74 0.77 0.78 0.84 0.87 0.93 0.99 1.03 1.06 1.06 1.05 1.07 1.12
0.81 0.81 0.85 0.75 0.66 0.74 0.82 0.85 0.81 0.74 0.69 0.63 0.57 0.59 0.59 0.57 0.60 0.63 0.67 0.72 0.72 0.69 0.65 0.62 0.63 0.64 0.63 0.64 0.67 0.69 0.70 0.64 0.62 0.65 0.71 0.79 0.84 0.91 0.94 0.92 0.95 1.02 1.08
0.73 0.73 0.77 0.75 0.70 0.72 0.79 0.81 0.78 0.69 0.62 0.55 0.53 0.55 0.57 0.58 0.60 0.62 0.63 0.65 0.66 0.68 0.66 0.65 0.63 0.61 0.61 0.60 0.56 0.56 0.52 0.47 0.46 0.52 0.58 0.65 0.73 0.81 0.84 0.84 0.83 0.90 0.98